Nashua, NH

2:33 PM EDT on October 23, 2019 (GMT -0400)
Boire

Weather History for KASH - September, 2019

Change the Weather History Date:

Sunday, September 15, 2019

  Actual Average Record
Temperature  
Mean Temperature 66 °F -  
Max Temperature 78 °F 71 °F 87 °F (1993)
Min Temperature 54 °F 48 °F 30 °F (1975)
Cooling Degree Days 1    
Growing Degree Days 16 (Base 50)    
Moisture  
Dew Point 57 °F    
Average Humidity 89    
Maximum Humidity 100    
Minimum Humidity 42    
Precipitation  
Precipitation 0.01 in - - ()
Sea Level Pressure  
Sea Level Pressure 30.12 in    
Wind  
Wind Speed 1 mph ()    
Max Wind Speed 9 mph    
Max Gust Speed 16 mph    
Visibility 4.8 miles    
Events Fog    
Averages and records for this station are not official NWS values.
T = Trace of Precipitation, MM = Missing Value Source: Averaged Metar Reports

Daily Weather History Graph

Daily Weather History Graph

Search for Another Location

Airport or City:

Astronomy

Sep. 15, 2019 Rise Set
Actual Time 6:25 AM EDT 6:56 PM EDT
Civil Twilight 5:57 AM EDT 7:24 PM EDT
Nautical Twilight 5:23 AM EDT 7:58 PM EDT
Astronomical Twilight 4:48 AM EDT 8:32 PM EDT
Moon 8:01 PM EDT (9/15) 7:33 AM EDT (9/15)
Length of Visible Light 13h 27m
Length of Day
12h 30m
Full, 98% of the Moon is Illuminated
Sep 15
Full
Sep 21
Last Quarter
Sep 28
New
Oct 5
First Quarter
Oct 13
Full

Hourly Weather History & Observations

Time (EDT) Temp. Dew Point Humidity Pressure Visibility Wind Dir Wind Speed Gust Speed Precip Events Conditions
12:39 AM 64.4 °F 64.4 °F 100% 30.13 in 9.0 mi Calm Calm - N/A   Mostly Cloudy
12:56 AM 64.0 °F 64.0 °F 100% 30.14 in 9.0 mi Calm Calm - N/A   Overcast
1:15 AM 64.4 °F 64.4 °F 100% 30.13 in 10.0 mi Calm Calm - N/A   Scattered Clouds
1:49 AM 62.6 °F 62.6 °F 100% 30.13 in 1.8 mi Calm Calm - N/A   Clear
1:56 AM 62.1 °F 62.1 °F 100% 30.14 in 1.2 mi Calm Calm - N/A   Clear
2:03 AM 60.8 °F 60.8 °F 100% 30.12 in 1.0 mi East 3.5 mph - N/A   Mist
2:16 AM 60.8 °F 60.8 °F 100% 30.12 in 0.2 mi Calm Calm - N/A Fog Fog
2:56 AM 60.1 °F 60.1 °F 100% 30.13 in 0.5 mi Calm Calm - N/A Fog Fog
3:28 AM 60.8 °F 60.8 °F 100% 30.11 in 0.2 mi South 3.5 mph - N/A Fog Fog
3:40 AM 59.0 °F 59.0 °F 100% 30.11 in 0.5 mi Calm Calm - N/A Fog Fog
3:49 AM 59.0 °F 59.0 °F 100% 30.12 in 0.8 mi Calm Calm - N/A   Overcast
3:54 AM 59.0 °F 59.0 °F 100% 30.12 in 1.2 mi Calm Calm - N/A   Mostly Cloudy
3:56 AM 59.0 °F 59.0 °F 100% 30.13 in 1.5 mi Calm Calm - N/A   Mostly Cloudy
4:03 AM 57.2 °F 57.2 °F 100% 30.12 in 0.8 mi Calm Calm - N/A   Mist
4:12 AM 57.2 °F 57.2 °F 100% 30.13 in 0.5 mi Calm Calm - N/A Fog Fog
4:25 AM 57.2 °F 57.2 °F 100% 30.12 in 0.2 mi Calm Calm - N/A Fog Fog
4:53 AM 57.2 °F 57.2 °F 100% 30.12 in 0.5 mi Calm Calm - N/A Fog Fog
4:56 AM 57.9 °F 57.9 °F 100% 30.14 in 0.2 mi Calm Calm - N/A Fog Fog
5:16 AM 57.2 °F 57.2 °F 100% 30.13 in 0.8 mi Calm Calm - N/A   Overcast
5:43 AM 55.4 °F 55.4 °F 100% 30.13 in 0.5 mi Calm Calm - 0.01 in Fog Fog
5:54 AM 55.4 °F 55.4 °F 100% 30.14 in 0.8 mi Calm Calm - 0.01 in   Overcast
5:56 AM 55.9 °F 55.9 °F 100% 30.15 in 1.0 mi Calm Calm - 0.01 in   Overcast
6:00 AM 55.4 °F 55.4 °F 100% 30.14 in 2.0 mi Calm Calm - N/A   Mostly Cloudy
6:07 AM 55.4 °F 55.4 °F 100% 30.14 in 5.0 mi Calm Calm - N/A   Mostly Cloudy
6:16 AM 55.4 °F 55.4 °F 100% 30.14 in 6.0 mi Calm Calm - N/A   Scattered Clouds
6:19 AM 55.4 °F 55.4 °F 100% 30.14 in 1.5 mi Calm Calm - N/A   Partly Cloudy
6:22 AM 55.4 °F 55.4 °F 100% 30.14 in 0.8 mi Calm Calm - N/A   Mist
6:24 AM 55.4 °F 55.4 °F 100% 30.14 in 0.5 mi Calm Calm - N/A Fog Fog
6:26 AM 55.4 °F 55.4 °F 100% 30.14 in 0.2 mi Calm Calm - N/A Fog Fog
6:33 AM 55.4 °F 55.4 °F 100% 30.14 in 0.2 mi Calm Calm - N/A Fog Fog
6:47 AM 55.4 °F 55.4 °F 100% 30.14 in 0.8 mi Calm Calm - N/A   Mist
6:49 AM 55.4 °F 55.4 °F 100% 30.14 in 1.5 mi Calm Calm - N/A   Partly Cloudy
6:52 AM 55.4 °F 55.4 °F 100% 30.14 in 4.0 mi Calm Calm - N/A   Partly Cloudy
6:56 AM 54.0 °F 54.0 °F 100% 30.16 in 8.0 mi Calm Calm - N/A   Partly Cloudy
7:56 AM 61.0 °F 61.0 °F 100% 30.15 in 10.0 mi Variable 4.6 mph - N/A   Clear
8:56 AM 63.0 °F 62.1 °F 97% 30.15 in 10.0 mi WSW 5.8 mph - N/A   Clear
9:56 AM 68.0 °F 62.1 °F 81% 30.15 in 10.0 mi Variable 4.6 mph - N/A   Clear
10:56 AM 71.1 °F 57.0 °F 61% 30.13 in 10.0 mi WNW 9.2 mph - N/A   Clear
11:56 AM 73.9 °F 54.0 °F 50% 30.12 in 10.0 mi West 8.1 mph - N/A   Partly Cloudy
12:56 PM 75.9 °F 54.0 °F 46% 30.09 in 10.0 mi Variable 5.8 mph - N/A   Partly Cloudy
1:56 PM 78.1 °F 53.1 °F 42% 30.07 in 10.0 mi WSW 8.1 mph - N/A   Scattered Clouds
2:56 PM 77.0 °F 55.0 °F 47% 30.06 in 10.0 mi West 5.8 mph 16.1 mph N/A   Scattered Clouds
3:56 PM 77.0 °F 55.0 °F 47% 30.04 in 10.0 mi WNW 9.2 mph 16.1 mph N/A   Scattered Clouds
4:56 PM 75.9 °F 53.1 °F 45% 30.04 in 10.0 mi West 8.1 mph - N/A   Scattered Clouds
5:56 PM 73.9 °F 54.0 °F 50% 30.06 in 10.0 mi West 6.9 mph - N/A   Scattered Clouds
6:56 PM 71.1 °F 55.0 °F 57% 30.05 in 10.0 mi Calm Calm - N/A   Mostly Cloudy
7:56 PM 69.1 °F 55.9 °F 63% 30.05 in 10.0 mi Calm Calm - N/A   Scattered Clouds
8:56 PM 64.9 °F 57.9 °F 78% 30.05 in 10.0 mi Calm Calm - N/A   Clear
9:56 PM 62.1 °F 57.0 °F 84% 30.05 in 10.0 mi Calm Calm - N/A   Partly Cloudy
10:56 PM 62.1 °F 57.9 °F 86% 30.05 in 10.0 mi Calm Calm - N/A   Overcast
11:56 PM 62.1 °F 57.9 °F 86% 30.05 in 10.0 mi Calm Calm - N/A   Overcast